Zurück zum Katalog

DMSP 5D-2 F13 DEB

LostSSO
NORAD 42276·DEBRIS·🇺🇸 United States

Gestartet Mar 24, 1995 von Vandenberg Space Force Base

Loading…

Nächste Überflüge (nächste 24 Stunden)

TLE

VeraltetSource: Space-Track

Epoche: Jul 31, 2026, 23:52 UTC

1 42276U 95015GS  26212.99453186  .00000275  00000-0  23197-3 0  9998
2 42276  99.0848 131.7880 0113453 345.8105  13.9877 13.93300180573864

Verfolge DMSP 5D-2 F13 DEB in Echtzeit mit AllMySat

Download on the App Store